Location: Shepherdstown, WV
(39.4326°N, 77.8042°W)
Time: 01:45:28
(UTC-04:00)

Vanguard 3 - Visible Passes

Search period start: 26 July 2021 00:00
Search period end: 05 August 2021 00:00
Orbit: 508 x 3261 km, 33.4° (Epoch: 25 July)

Date Brightness Start Highest point End Pass type
(mag) Time Alt. Az. Time Alt. Az. Time Alt. Az.
26 Jul 9.6 00:42:24 10° W 01:01:36 62° SSW 01:08:10 39° SE visible
26 Jul 9.9 03:00:58 10° W 03:12:32 31° WSW 03:12:32 31° WSW visible
26 Jul 10.1 21:09:41 10° WSW 21:28:10 68° SSE 21:46:34 10° E visible
26 Jul 9.8 23:25:02 10° W 23:44:57 70° S 23:56:31 24° ESE visible
27 Jul 9.6 01:42:27 10° W 01:59:54 47° SSW 02:00:55 47° SSW visible
27 Jul 10.7 04:03:40 10° W 04:05:20 12° WSW 04:05:20 12° WSW visible
27 Jul 10.0 22:08:21 10° WSW 22:27:43 73° S 22:45:06 11° E visible
28 Jul 9.7 00:24:40 10° W 00:44:00 60° SSW 00:49:31 45° SSE visible
28 Jul 10.2 02:43:16 10° W 02:53:57 28° WSW 02:53:57 28° WSW visible
28 Jul 10.1 20:52:29 10° WSW 21:10:20 70° S 21:29:23 10° E visible
28 Jul 9.9 23:07:31 10° W 23:27:14 69° SSW 23:38:16 29° ESE visible
29 Jul 9.8 01:24:41 10° W 01:42:18 45° SW 01:42:42 45° SSW visible
29 Jul 10.9 03:46:43 10° W 03:47:08 10° W 03:47:08 10° W visible
29 Jul 10.0 21:51:05 10° W 22:09:56 73° S 22:27:06 13° ESE visible
30 Jul 9.8 00:07:01 10° W 00:26:17 58° SSW 00:31:33 46° SSE visible
30 Jul 10.4 02:25:41 10° W 02:36:00 26° WSW 02:36:00 26° WSW visible
30 Jul 10.1 20:35:26 10° WSW 20:52:32 71° S 21:12:04 10° E visible
30 Jul 10.0 22:50:07 10° W 23:09:27 67° SSW 23:20:28 31° SE visible
31 Jul 10.0 01:07:01 10° W 01:24:35 42° SW 01:24:55 42° SSW visible
31 Jul 10.1 21:33:56 10° W 21:52:07 72° S 22:09:27 14° ESE visible
31 Jul 9.9 23:49:30 10° W 00:08:29 55° SSW 00:13:54 45° SSE visible
01 Aug 10.6 02:08:14 10° W 02:18:21 24° WSW 02:18:21 24° WSW visible
01 Aug 10.1 20:18:32 10° WSW 20:34:47 72° S 20:54:39 10° E visible
01 Aug 10.0 22:32:50 10° W 22:51:36 65° SSW 23:02:56 31° SE visible
02 Aug 10.1 00:49:28 10° W 01:06:46 39° SW 01:07:24 39° SSW visible
02 Aug 10.1 21:16:55 10° W 21:34:20 71° S 21:52:01 15° ESE visible
02 Aug 10.0 23:32:06 10° W 23:50:36 52° SSW 23:56:29 42° SSE visible
03 Aug 10.7 01:50:57 10° W 02:00:57 22° WSW 02:00:57 22° WSW visible
03 Aug 10.1 22:15:41 10° W 22:33:45 63° SSW 22:45:37 29° SE visible
04 Aug 10.3 00:32:06 10° W 00:48:54 36° SW 00:50:05 36° SSW visible
04 Aug 10.1 21:00:02 10° W 21:16:33 69° S 21:34:48 14° ESE visible
04 Aug 10.1 23:14:51 10° W 23:32:42 49° SSW 23:39:16 39° S visible
